Tracking 21612 objects as of 20-Oct-2020
HD Live streaming from Space Station
objects crossing your sky now

COSMOS 507

Track COSMOS 507 now!
10-day predictions
COSMOS 507 is classified as:


NORAD ID: 6120
Int'l Code: 1972-057D
Perigee: 1,418.8 km
Apogee: 1,502.7 km
Inclination: 74.0 °
Period: 115.0 minutes
Semi major axis: 7831 km
RCS: 0.7026 m2 (medium)
Launch date: July 20, 1972
Source: Commonwealth of Independent States (former USSR) (CIS)
Launch site: PLESETSK MISSILE AND SPACE COMPLEX (PKMTR)
aabbcc
Your satellite tracking list
Your tracking list is empty




NASA's NSSDC Master Catalog

Two Line Element Set (TLE):
1  6120U 72057D   20292.95071374 -.00000035 +00000-0 -12017-3 0  9995
2  6120 074.0257 088.9116 0053547 129.4041 035.6178 12.52615106206090
Source of the keplerian elements: AFSPC